Regional Weather Roundup
Issued by NWS

Home | Current Version | Previous Version | Text Only | Print | Product List | Glossary On
Versions: 1 2 3 4 5 6 7 8 9 10 11 12 13 14 15 16 17 18 19 20 21 22 23 24 25 26 27 28 29 30 31 32 33 34 35 36 37 38 39 40 41 42 43 44 45 46 47 48 49 50
000
ASUS45 KBOU 251407
RWRCO

WEATHER ROUNDUP FOR COLORADO
NATIONAL WEATHER SERVICE DENVER/BOULDER CO
800 AM MDT WED MAY 25 2016

NOTE: "FAIR" INDICATES FEW OR NO CLOUDS BELOW 12000 FEET WITH NO
SIGNIFICANT WEATHER AND/OR OBSTRUCTIONS TO VISIBILITY.

COZ001>005-013-030-031-251500-
...NORTHWEST COLORADO...

CITY           SKY/WX    TMP DP  RH WIND       PRES   REMARKS
CRAIG          FAIR      49  39  68 E3        30.07R
HAYDEN         FAIR      48  34  57 E9        30.07R
MEEKER         NOT AVBL
MOUNT WERNER   NOT AVBL
STEAMBOAT SPGS FAIR      46  35  65 E3        30.08S
WALDEN         FAIR      43  28  56 S16G23    30.11R
$$

COZ006>008-011-251500-
...WEST CENTRAL VALLEYS...

CITY           SKY/WX    TMP DP  RH WIND       PRES   REMARKS
GRAND JUNCTION FAIR      56  28  34 S3        30.05R
MONTROSE       FAIR      54  25  32 SE7       30.11R
EAGLE          MOSUNNY   48  30  49 CALM      30.12R
RIFLE          FAIR      52  34  50 E3        30.07R
DELTA          FAIR      57  26  30 E6        30.09R
NUCLA          FAIR      54  21  28 E5        30.15R
$$

COZ017>023-064>068-251500-
...SOUTHWEST COLORADO...

CITY           SKY/WX    TMP DP  RH WIND       PRES   REMARKS
DURANGO        FAIR      45  25  45 E7        30.17R
CORTEZ         FAIR      51  29  42 NE3       30.14R
PAGOSA SPRINGS FAIR      49  17  27 CALM      30.22R
TELLURIDE      FAIR      44  15  31 CALM      30.24S
WOLF CREEK PAS FAIR      32  12  43 SW17G24   30.36R WCI  21
$$

COZ009-010-012-014-032>034-037-058>063-251500-
...CENTRAL COLORADO...

CITY           SKY/WX    TMP DP  RH WIND       PRES   REMARKS
ASPEN          FAIR      48  23  37 SE5       30.12R
BUENA VISTA    FAIR      48  17  28 E6        30.14S
COPPER MTN     NOT AVBL
BERTHOUD PASS  FAIR      28  19  69 MISG      30.25S
COTTONWOOD PAS FAIR      46   9  21 W13G18    30.20S
GUNNISON       FAIR      45  21  39 CALM      30.18F
KREMMLING      FAIR      46  32  57 CALM      30.12S
LEADVILLE      FAIR      42  10  27 S9        30.19R
MONARCH PASS   FAIR      30  12  47 W28G33    30.39S WCI  16
SALIDA         FAIR      55  15  20 SW8       30.21R
SUNLIGHT       PTSUNNY   36  25  64 CALM      30.26R
WILKERSON PASS FAIR      34  12  40 SW13G21   30.24S WCI  25
$$

COZ069>075-251500-
...SAN LUIS VALLEY/SANGRE DE CRISTO MOUNTAINS...

CITY           SKY/WX    TMP DP  RH WIND       PRES   REMARKS
ALAMOSA        FAIR      50  17  27 E6        30.16R
LA VETA PASS   FAIR      41  10  28 S12G22    30.21S
SAGUACHE       FAIR      46  19  34 NW12      30.17S
$$

COZ035-036-038>040-251500-
...NORTHERN COLORADO FRONT RANGE...

CITY           SKY/WX    TMP DP  RH WIND       PRES   REMARKS
DENVER INTL AP FAIR      55  41  59 NW3       30.02R
DMNS CITY PARK   N/A     59  39  47 SW1G9     30.03R
AURORA         MOSUNNY   54  43  67 W7        30.04R
FRONT RANGE AP NOT AVBL
ERIE MUNI ARPT FAIR      55  42  61 E10       30.02R
BOULDER MUN AP FAIR      59  37  44 SE10      30.01R
CENTENNIAL     FAIR      56  39  53 W5        30.04R
BROOMFIELD     MOSUNNY   55  39  54 E3        30.04R
FORT COLLINS   FAIR      52  43  71 S8        30.01R
LONGMONT       FAIR      58  44  57 E7        30.02R
$$

COZ041-046-047-076>085-087-088-251500-
...PIKES PEAK/PALMER DIVIDE AND SOUTHERN FOOTHILLS...

CITY           SKY/WX    TMP DP  RH WIND       PRES   REMARKS
COLO. SPRINGS  FAIR      63  20  19 NW13      30.03R
A. F. ACADEMY  FAIR      57  36  44 VRB6      30.05R
SCHRIEVER AFB  NOT AVBL
ELLICOTT       FAIR     N/A N/A N/A NE12      30.02R
FALCON         FAIR      57  32  39 MISG      30.07R
FORT CARSON    FAIR      61  33  35 NW9       30.01R
LIMON          CLOUDY    55  52  89 N10       30.01R
MONUMENT HILL  FAIR      52  36  54 CALM      30.09S
TRINIDAD       FAIR      60  19  20 W5        30.01R
$$

COZ042>045-048>051-090-091-251500-
...NORTHEAST COLORADO...

CITY           SKY/WX    TMP DP  RH WIND       PRES   REMARKS
GREELEY ARPT   FAIR      54  45  71 E5        30.02R
AKRON          CLOUDY    54  52  93 SE8       30.00R
BURLINGTON     CLOUDY    56  53  90 NE10      29.95R
WRAY           NOT AVBL
STERLING       FAIR      54  52  94 CALM      29.98R
HOLYOKE        FAIR      63  54  72 NW3       29.96R
FORT MORGAN    FAIR      58  49  73 E7        30.00R
$$

COZ086-089-092>099-251500-
...SOUTHEAST COLORADO...

CITY           SKY/WX    TMP DP  RH WIND       PRES   REMARKS
PUEBLO         FAIR      66  36  32 NE14      29.97R
LA JUNTA       FAIR      65  29  25 NE8       29.96R
LAMAR          FAIR      62  47  57 NE7       29.92R
SPRINGFIELD      N/A     70  26  19 W14       29.95R
$$



USA.gov is the U.S. government's official web portal to all federal, state and local government web resources and services.